Temperature
16 17 17 17 17 16 15 15 15 16 16 18 18 17 18 18 19 19 19 19 20 20 20 20 20 19 19 19 19 18 18 18 18 17 17 17 17 16 16 16 16 15 15 15
17 17 17 17 17 17 16 16 16 16 17 18 18 18 18 18 18 18 19 19 20 20 20 20 20 20 19 19 19 18 18 18 18 17 17 17 17 17 16 16 16 15 15 15
16 17 17 17 17 17 17 16 16 17 17 18 17 17 18 18 18 19 19 20 20 20 20 20 20 20 20 19 19 19 18 18 18 17 17 17 17 17 16 16 16 16 15 15
15 17 17 17 18 18 17 18 17 17 17 17 18 19 19 19 19 20 20 20 20 21 21 21 20 20 20 19 19 19 18 18 18 18 17 17 17 17 16 16 16 16 15 15
14 16 16 18 18 17 17 17 18 17 18 18 19 19 19 20 20 21 21 21 21 21 21 20 20 20 20 19 19 19 19 18 18 18 17 17 17 17 16 16 16 16 15 15
14 16 16 18 18 18 18 18 18 18 17 18 18 17 18 20 20 21 21 21 21 21 21 20 20 20 20 19 19 19 19 19 18 18 18 17 17 17 16 16 16 15 15 15
14 15 16 17 17 18 18 18 19 19 18 18 18 18 20 20 21 21 21 21 21 21 21 20 20 20 20 19 19 19 19 18 18 18 18 17 17 16 16 16 15 15 15 15
13 15 16 17 17 17 18 19 19 19 20 19 20 20 20 21 21 21 21 21 21 21 20 20 20 20 20 19 19 19 19 18 18 18 17 17 17 16 16 16 15 15 15 15
14 16 17 17 18 19 20 19 20 20 20 20 20 20 20 20 20 20 21 21 20 20 20 20 20 20 20 20 19 19 19 18 18 18 17 17 17 16 16 16 15 15 15 15
14 14 16 17 18 19 20 20 20 20 20 20 20 20 20 20 20 20 20 20 20 20 20 20 20 19 19 19 19 19 19 18 18 18 17 17 17 16 16 16 16 16 15 15
14 15 16 17 19 19 20 20 20 20 20 20 20 20 20 20 20 20 20 20 19 19 19 19 19 19 19 19 19 18 18 18 18 18 17 17 17 17 16 16 16 16 15 15
15 16 15 17 18 19 20 20 20 20 20 20 20 20 20 20 19 19 19 19 19 19 19 19 19 19 19 18 18 18 18 18 18 17 17 17 17 16 16 16 15 15 15 15
17 18 18 18 18 18 19 19 19 20 20 19 19 19 19 19 19 19 19 19 19 18 18 18 18 18 18 18 18 18 18 17 17 17 17 17 16 16 16 16 15 15 15 14
17 17 17 18 18 18 18 18 19 19 19 19 19 19 18 18 18 18 18 18 18 18 18 17 17 17 17 17 17 17 17 17 17 17 17 17 16 16 16 16 15 15 15 14
16 17 17 17 17 17 18 18 18 18 18 18 18 18 18 18 18 18 17 17 17 17 17 17 17 17 17 17 17 17 17 17 16 16 16 16 16 16 15 15 15 15 14 14
16 16 16 17 17 17 17 17 17 17 17 17 17 17 17 17 17 17 17 17 17 17 16 16 16 16 16 16 16 16 16 16 16 16 16 15 15 15 15 14 14 14 14 14
15 15 15 16 16 16 16 16 16 16 16 16 16 16 16 16 16 16 16 16 16 16 16 16 16 16 15 15 15 15 15 15 15 15 15 15 15 14 14 14 13 13 13 13
15 15 15 15 15 15 15 15 15 15 15 15 15 15 15 15 15 15 15 15 15 15 15 15 15 15 15 15 15 15 15 14 14 14 14 14 14 14 13 13 13 13 13 12
14 14 14 15 15 15 15 15 15 15 15 14 15 15 14 14 14 14 14 14 14 14 14 14 14 14 14 14 14 14 14 14 14 14 13 13 13 13 13 12 12 12 12 11
13 13 14 14 14 14 14 14 14 14 14 14 14 14 14 13 13 13 13 13 13 13 13 13 13 14 14 14 14 13 13 13 13 13 13 12 12 12 12 11 11 11 11 11
12 12 13 13 13 13 13 13 13 13 13 13 13 13 13 13 12 12 13 13 12 12 12 13 13 13 13 13 13 13 13 12 12 12 12 12 11 11 11 11 10 10 10 10
11 12 12 12 12 12 12 12 12 12 12 12 12 12 12 12 12 12 12 12 12 12 12 12 12 12 12 12 12 12 12 11 11 11 11 11 10 10 10 10 9 9 9 9
11 11 11 11 11 11 11 11 11 11 11 11 11 11 11 11 11 11 11 11 11 11 11 11 11 11 11 11 11 11 10 10 10 10 10 10 10 9 9 9 8 8 8 8
10 10 10 10 10 10 10 10 10 10 10 10 10 10 10 10 10 10 10 10 10 10 10 10 10 10 10 10 10 10 10 9 9 9 9 9 8 8 8 8 8 7 7 7
9 9 9 9 9 9 9 9 9 9 9 9 9 9 9 9 9 9 9 9 9 9 9 9 9 9 9 9 9 9 8 8 8 8 8 7 7 7 7 7 7 6 6 6
8 8 8 8 9 9 8 8 8 8 9 9 9 8 8 8 8 8 8 8 8 8 8 8 8 8 8 8 8 8 7 7 7 7 7 6 6 6 6 6 5 5 5 5
8 8 8 8 8 8 8 8 8 8 8 8 8 8 8 8 8 8 8 7 7 7 7 7 7 7 7 7 7 6 6 6 6 6 5 5 5 5 5 5 4 4 4 4
Wind_Speed
6 5 4 5 6 9 8 8 8 7 8 11 8 5 4 4 5 7 9 11 13 13 11 11 10 10 10 10 9 10 9 9 8 7 6 6 6 6 5 5 5 5 5 4
2 3 5 5 7 10 10 8 8 7 9 9 5 2 2 4 7 9 10 11 12 12 12 12 12 12 11 11 10 10 10 10 8 8 7 7 7 6 6 5 5 5 5 5
2 2 1 5 8 10 7 7 8 9 10 5 2 2 4 5 8 9 10 11 12 12 13 13 13 13 13 12 10 11 10 9 9 9 8 7 7 7 7 6 5 5 4 4
2 2 4 7 4 6 7 7 9 8 7 6 6 4 3 4 7 8 9 10 10 11 11 10 9 9 9 10 11 11 10 9 9 9 8 8 7 7 6 5 5 5 5 5
3 2 6 7 3 4 5 5 6 8 6 3 1 2 3 3 5 7 8 8 9 10 9 9 10 10 10 10 10 10 10 10 10 10 10 9 9 8 6 5 5 4 4 5
4 3 5 7 3 2 3 4 4 6 6 4 5 2 4 3 3 4 5 6 7 7 7 9 9 11 12 11 11 12 12 11 10 10 11 11 10 7 5 5 5 5 4 4
5 4 7 7 4 4 4 6 3 5 5 6 5 5 3 1 2 3 4 5 7 8 8 9 10 11 11 11 12 12 9 9 9 10 10 10 8 6 6 6 6 5 4 3
5 4 7 4 4 6 6 3 1 2 3 5 4 1 1 1 2 2 3 4 6 7 6 6 9 11 11 11 10 8 9 9 9 9 8 8 8 7 7 7 7 5 4 3
8 7 4 3 5 4 2 2 1 2 2 5 4 2 2 2 2 3 4 4 5 6 6 5 7 10 11 9 7 9 9 9 8 8 7 8 9 9 7 7 6 5 5 4
3 5 4 3 3 2 1 2 1 2 3 4 4 3 3 3 3 3 3 3 4 6 6 5 5 6 7 6 8 9 9 8 8 8 7 7 7 8 8 8 7 6 6 6
3 4 2 2 2 1 1 3 5 4 4 4 5 4 3 3 3 3 3 3 4 5 5 5 5 5 5 6 8 8 8 7 7 7 8 7 7 6 8 8 9 9 8 7
6 6 5 4 2 2 3 3 4 5 5 4 4 4 4 3 2 3 3 3 3 3 3 3 4 4 4 6 8 8 7 6 6 6 6 6 6 3 3 5 8 10 9 8
4 2 3 2 2 2 4 4 4 5 5 4 4 4 4 3 3 3 4 4 3 3 3 3 3 3 4 5 7 8 7 7 6 6 7 6 6 7 4 2 3 7 8 10
2 3 2 2 2 3 4 4 5 6 5 4 4 4 4 4 4 4 3 1 2 3 3 3 3 3 3 5 6 6 6 7 6 6 6 7 7 6 6 5 4 3 4 8
1 2 4 3 4 4 4 5 7 6 5 5 5 5 5 5 4 2 2 3 4 5 4 3 2 1 2 4 5 6 5 5 5 5 5 5 5 5 5 5 4 3 2 2
3 4 6 6 5 4 5 5 5 3 3 3 4 4 4 4 3 3 4 4 5 4 2 2 1 1 2 4 4 4 4 5 5 5 4 4 4 5 5 5 4 4 4 4
6 4 4 4 4 3 3 3 4 3 3 3 3 3 4 5 5 5 3 2 3 2 1 1 1 1 2 4 5 4 3 4 6 4 4 5 5 5 5 5 5 5 5 5
4 5 6 7 6 4 3 3 3 4 3 2 3 4 5 5 4 2 2 2 3 4 3 1 1 2 3 3 3 3 3 3 3 4 4 4 4 4 4 5 5 5 4 4
4 4 5 5 5 5 4 3 2 3 3 4 4 4 3 3 2 2 3 4 4 2 3 2 2 3 2 3 4 3 4 4 3 2 3 4 4 3 3 4 4 4 3 3
5 5 6 5 5 5 5 4 3 3 3 4 5 4 4 3 2 3 3 3 1 1 2 1 1 2 1 2 4 3 3 4 4 3 3 3 3 3 3 3 3 3 3 3
6 6 7 6 5 5 4 4 4 4 3 4 5 4 3 2 2 3 3 2 3 2 2 3 2 1 1 2 4 3 3 3 3 3 3 3 3 3 3 3 3 3 3 3
5 6 6 6 6 5 3 3 4 4 4 4 4 4 4 3 3 3 2 0 2 2 2 1 1 2 3 4 3 2 2 2 2 2 2 2 2 2 2 3 3 3 3 3
5 5 6 5 5 4 4 4 4 4 4 3 3 3 3 2 1 2 1 2 1 2 2 1 2 4 5 4 3 2 2 2 1 1 1 1 1 2 2 2 2 2 2 2
5 5 5 5 5 6 5 3 3 3 3 3 2 2 3 2 2 1 0 1 3 3 2 3 5 6 6 3 3 2 2 2 2 1 1 1 1 0 1 1 1 1 2 2
5 5 5 6 5 4 3 3 4 5 5 4 4 3 2 2 2 1 1 2 4 5 3 4 6 6 4 3 3 2 2 2 2 2 2 1 1 1 0 0 0 1 1 1
4 4 3 3 3 3 3 3 3 3 3 3 3 3 3 2 2 2 2 3 4 5 4 3 3 4 3 3 2 2 1 1 2 1 1 1 1 0 0 0 0 0 1 1
5 4 4 4 3 2 3 3 3 2 2 3 2 1 2 2 3 3 3 3 3 3 3 2 2 2 2 2 2 2 1 1 1 0 0 0 0 1 1 1 1 1 1 1
Wind_Direction
231 226 191 206 205 188 194 201 209 236 244 267 273 258 238 194 175 169 171 172 177 181 181 178 178 179 179 177 171 167 164 171 180 175 163 156 153 153 147 146 150 145 136 129
270 240 213 239 237 215 213 216 227 250 267 262 265 218 194 182 173 179 183 183 184 182 180 183 184 182 179 179 175 168 172 179 173 162 161 163 161 154 149 147 144 142 147 148
259 305 80 273 236 209 207 207 198 225 244 261 286 231 212 199 188 189 189 187 186 187 187 189 188 182 183 180 168 170 176 174 169 167 167 169 164 156 160 161 154 153 157 157
158 90 242 252 247 198 208 229 213 227 247 242 234 229 209 199 196 198 192 188 190 189 188 184 178 175 170 163 165 172 175 174 172 170 169 163 161 167 168 160 162 165 167 169
140 199 280 292 263 181 191 253 226 225 243 239 209 65 325 247 207 203 196 190 188 186 180 171 171 167 158 162 167 173 181 181 179 174 170 167 173 176 170 163 168 170 167 169
134 162 236 257 270 194 126 290 249 207 214 187 128 113 273 266 208 193 179 175 167 159 153 162 168 160 161 169 174 188 191 186 179 175 174 178 181 174 165 166 172 163 163 174
159 202 255 259 268 133 155 243 250 193 191 170 173 197 232 207 177 170 163 155 150 150 160 170 163 161 169 176 191 195 181 170 171 177 180 177 171 166 158 157 154 159 165 172
155 185 248 250 147 176 215 244 192 181 176 166 175 173 149 139 129 119 119 124 143 152 160 158 161 165 175 192 195 170 162 167 173 176 177 172 163 161 156 154 156 166 168 180
183 206 237 231 217 245 205 193 206 151 153 148 135 122 104 103 104 115 127 135 145 152 150 152 167 172 184 195 166 157 161 171 172 169 169 162 165 164 159 161 166 177 179 195
202 254 258 263 258 275 229 179 141 118 121 121 114 101 83 94 97 98 101 126 135 137 146 164 179 183 187 169 157 159 167 171 168 167 166 165 167 169 171 177 179 184 191 201
211 260 297 300 252 247 67 85 85 78 87 108 109 92 84 93 98 112 106 116 135 149 163 176 175 177 167 153 152 158 165 167 169 170 170 172 177 184 186 193 189 188 198 195
206 210 183 219 231 165 121 105 111 101 80 73 94 100 85 86 95 108 112 117 121 131 146 160 161 162 154 154 156 157 161 167 171 171 171 172 172 174 206 198 201 202 197 190
211 182 167 169 117 108 117 109 99 95 101 90 71 91 95 86 78 86 92 103 125 143 144 143 145 149 156 157 159 163 170 174 171 171 172 174 176 181 191 215 208 210 209 205
183 127 114 143 139 104 105 102 91 78 69 77 76 77 87 85 81 80 80 100 116 113 113 126 136 158 169 161 162 166 166 170 171 177 177 178 183 186 185 184 196 229 230 218
173 151 152 128 100 89 92 96 88 75 67 59 62 70 80 87 87 83 76 87 92 86 86 102 119 161 158 158 162 164 163 170 172 172 173 175 175 175 179 184 191 200 200 223
108 96 110 113 112 104 95 99 103 96 84 76 68 63 67 83 82 68 64 84 98 101 105 114 136 215 160 157 156 157 166 166 163 164 163 163 165 172 179 185 191 196 206 209
129 133 130 128 128 122 116 124 136 136 113 98 92 87 85 81 73 62 54 66 100 112 114 140 190 136 143 156 158 161 155 160 155 154 170 175 177 185 188 190 199 208 218 207
172 174 166 159 155 141 120 105 109 114 115 115 103 94 90 91 87 65 46 63 68 50 29 7 62 109 130 146 152 147 147 151 158 169 175 177 181 184 185 192 202 210 223 214
132 141 137 135 140 136 128 114 106 107 110 111 105 98 90 88 86 73 67 73 71 36 337 351 65 96 116 142 135 136 141 145 146 152 161 166 167 173 182 191 202 209 208 203
110 112 111 107 104 113 113 103 97 91 94 109 106 95 79 63 71 78 77 69 15 279 292 14 91 109 125 135 122 132 143 151 155 155 153 163 174 181 186 193 199 206 209 212
117 113 109 106 98 93 100 106 106 96 82 99 111 115 109 74 71 86 87 53 333 338 19 57 77 103 120 117 114 122 135 145 153 161 167 177 184 188 194 199 203 209 213 218
117 115 111 110 105 92 80 88 103 101 89 87 96 105 102 83 69 62 57 207 308 24 48 49 74 93 103 103 112 114 121 131 141 150 164 176 185 195 203 205 211 216 215 215
113 114 112 110 111 105 80 76 83 94 97 100 109 115 115 106 99 104 15 321 341 54 59 59 85 93 97 97 107 109 111 114 117 126 144 164 182 196 204 209 215 217 219 223
113 108 106 104 103 97 84 61 62 73 80 77 82 106 119 103 58 30 191 18 47 63 62 63 74 82 87 91 97 97 98 98 98 101 102 99 105 139 191 213 216 221 225 228
113 109 106 103 99 100 102 88 77 72 70 64 54 49 57 104 128 76 51 52 57 60 53 54 66 72 76 85 87 89 92 100 103 101 104 107 95 80 60 28 238 232 233 234
112 111 112 115 122 125 119 106 98 89 87 76 47 38 46 57 78 77 69 57 57 58 52 45 51 60 68 74 76 80 91 92 79 82 110 115 100 73 32 359 333 287 260 258
98 97 94 85 78 92 106 112 116 112 112 115 96 49 57 64 71 72 70 64 59 55 50 45 48 57 62 69 70 63 60 66 80 101 152 195 205 219 229 234 261 277 279 278
Height
1509 1506 1507 1508 1508 1511 1516 1516 1521 1515 1510 1500 1494 1493 1493 1493 1495 1497 1501 1504 1509 1514 1519 1524 1529 1534 1538 1543 1548 1551 1555 1558 1561 1563 1565 1567 1569 1570 1571 1572 1573 1574 1575 1575
1507 1503 1505 1506 1504 1505 1507 1508 1509 1507 1504 1492 1491 1491 1491 1492 1494 1496 1498 1502 1506 1511 1515 1520 1525 1530 1535 1540 1544 1548 1552 1555 1559 1561 1563 1565 1567 1569 1570 1571 1572 1573 1574 1575
1513 1506 1506 1510 1498 1499 1500 1499 1501 1503 1496 1489 1490 1490 1490 1490 1492 1493 1496 1500 1503 1507 1512 1517 1522 1526 1531 1536 1541 1545 1549 1553 1556 1559 1561 1563 1565 1567 1569 1570 1571 1572 1573 1574
1513 1510 1516 1501 1488 1488 1491 1491 1491 1490 1488 1487 1487 1487 1488 1488 1490 1492 1494 1498 1501 1505 1510 1514 1519 1524 1529 1533 1538 1542 1546 1549 1553 1556 1559 1561 1563 1565 1567 1568 1569 1570 1571 1572
1515 1515 1509 1494 1486 1487 1490 1489 1484 1485 1485 1485 1486 1487 1487 1487 1488 1490 1492 1496 1499 1503 1508 1512 1517 1521 1526 1530 1534 1538 1542 1546 1549 1553 1555 1558 1560 1562 1564 1566 1567 1568 1570 1570
1513 1512 1513 1495 1483 1482 1487 1490 1480 1480 1482 1483 1485 1491 1488 1486 1487 1489 1491 1494 1498 1502 1506 1510 1514 1519 1523 1527 1530 1534 1538 1542 1546 1549 1552 1555 1557 1559 1561 1563 1564 1566 1567 1568
1510 1510 1502 1486 1481 1483 1495 1490 1477 1478 1479 1481 1483 1485 1485 1485 1486 1488 1490 1493 1496 1500 1504 1508 1512 1516 1520 1524 1527 1531 1535 1539 1543 1546 1549 1552 1554 1556 1558 1560 1561 1563 1564 1565
1508 1509 1502 1481 1481 1484 1482 1476 1476 1476 1477 1479 1480 1482 1484 1484 1485 1487 1489 1492 1495 1498 1502 1506 1510 1513 1517 1520 1524 1529 1532 1536 1539 1542 1545 1548 1550 1553 1555 1556 1558 1560 1561 1562
1491 1491 1480 1478 1477 1477 1476 1475 1475 1476 1477 1478 1479 1481 1482 1483 1485 1487 1489 1491 1494 1497 1501 1504 1507 1511 1514 1518 1522 1525 1529 1532 1536 1539 1542 1544 1547 1549 1551 1552 1554 1556 1557 1558
1484 1480 1477 1476 1475 1475 1475 1475 1475 1476 1477 1478 1479 1481 1482 1483 1485 1487 1489 1491 1494 1497 1499 1502 1505 1508 1512 1515 1519 1522 1525 1529 1532 1535 1538 1540 1543 1545 1547 1548 1550 1552 1553 1555
1480 1476 1475 1474 1474 1474 1475 1475 1476 1477 1478 1480 1481 1482 1483 1484 1485 1487 1489 1491 1493 1496 1498 1500 1503 1506 1509 1513 1516 1519 1522 1525 1528 1531 1534 1536 1539 1541 1543 1545 1547 1549 1550 1551
1475 1471 1472 1473 1473 1474 1475 1476 1477 1478 1479 1481 1482 1483 1484 1485 1486 1488 1489 1491 1493 1495 1497 1499 1502 1504 1507 1510 1513 1516 1519 1522 1525 1527 1530 1532 1535 1537 1539 1541 1543 1544 1546 1548
1467 1468 1469 1471 1473 1474 1475 1476 1478 1479 1480 1481 1483 1484 1484 1485 1487 1488 1489 1491 1492 1494 1496 1498 1500 1503 1505 1508 1510 1513 1516 1518 1521 1524 1526 1528 1530 1532 1534 1537 1538 1540 1541 1542
1465 1467 1468 1470 1472 1474 1475 1477 1478 1479 1481 1482 1483 1484 1485 1486 1487 1488 1489 1491 1493 1494 1496 1497 1499 1501 1503 1505 1508 1510 1513 1515 1518 1520 1522 1524 1526 1528 1530 1532 1533 1535 1537 1538
1464 1465 1467 1469 1472 1473 1475 1476 1477 1479 1480 1482 1483 1484 1485 1486 1487 1488 1489 1491 1493 1494 1495 1497 1498 1500 1502 1504 1506 1508 1510 1512 1515 1517 1519 1521 1523 1524 1526 1527 1529 1530 1531 1533
1463 1465 1466 1468 1470 1472 1474 1475 1477 1478 1480 1481 1482 1484 1485 1486 1487 1488 1489 1490 1491 1492 1494 1496 1497 1499 1500 1502 1503 1505 1507 1509 1511 1513 1515 1517 1518 1520 1521 1522 1524 1525 1526 1527
1461 1463 1465 1467 1469 1471 1473 1475 1476 1478 1479 1481 1482 1483 1485 1485 1486 1488 1489 1490 1491 1492 1493 1494 1496 1497 1498 1500 1501 1503 1504 1505 1507 1509 1511 1512 1514 1515 1516 1518 1519 1520 1521 1522
1459 1461 1463 1465 1467 1470 1472 1474 1475 1477 1479 1480 1482 1483 1484 1485 1485 1487 1488 1489 1490 1491 1492 1493 1494 1495 1496 1497 1499 1500 1501 1502 1504 1505 1507 1508 1510 1511 1512 1513 1514 1515 1515 1516
1457 1459 1462 1464 1467 1469 1471 1473 1475 1476 1478 1479 1481 1482 1483 1484 1485 1486 1487 1487 1488 1489 1490 1491 1492 1493 1494 1495 1496 1497 1498 1499 1500 1501 1503 1504 1505 1506 1507 1508 1509 1509 1510 1510
1456 1458 1461 1463 1466 1468 1470 1472 1474 1475 1477 1479 1480 1481 1482 1483 1484 1485 1486 1486 1487 1488 1488 1489 1490 1490 1491 1492 1493 1494 1495 1496 1497 1498 1499 1499 1500 1501 1502 1503 1504 1504 1505 1505
1454 1457 1460 1462 1464 1467 1469 1471 1472 1474 1476 1478 1479 1480 1481 1482 1483 1484 1484 1485 1486 1486 1487 1487 1487 1488 1489 1489 1490 1491 1492 1492 1493 1494 1495 1495 1496 1497 1498 1498 1499 1499 1500 1500
1454 1456 1459 1461 1463 1465 1468 1470 1472 1473 1475 1476 1478 1479 1480 1481 1482 1483 1483 1484 1484 1484 1484 1484 1485 1485 1486 1487 1487 1488 1489 1489 1490 1490 1491 1492 1492 1493 1493 1494 1494 1494 1495 1495
1454 1456 1458 1460 1462 1464 1467 1469 1471 1472 1473 1475 1476 1478 1479 1480 1480 1481 1481 1482 1482 1482 1482 1482 1483 1483 1484 1484 1485 1485 1486 1486 1487 1487 1487 1488 1488 1488 1489 1489 1489 1490 1490 1490
1453 1455 1457 1460 1462 1464 1466 1468 1469 1471 1473 1474 1475 1477 1478 1478 1479 1480 1480 1480 1481 1480 1480 1480 1481 1481 1481 1482 1482 1482 1483 1483 1484 1484 1484 1484 1485 1485 1485 1485 1485 1485 1485 1485
1453 1455 1457 1459 1461 1463 1465 1467 1468 1470 1471 1473 1474 1476 1477 1477 1478 1478 1479 1479 1479 1479 1479 1479 1479 1479 1479 1480 1480 1480 1481 1481 1481 1481 1481 1481 1481 1481 1481 1481 1481 1481 1481 1480
1453 1455 1457 1459 1461 1463 1464 1466 1467 1469 1470 1472 1473 1474 1475 1476 1477 1477 1477 1477 1478 1478 1478 1478 1477 1478 1478 1478 1478 1478 1479 1479 1479 1479 1479 1479 1479 1478 1478 1478 1477 1477 1476 1476
1453 1455 1457 1459 1461 1463 1464 1466 1467 1468 1470 1471 1472 1473 1474 1475 1475 1476 1476 1476 1476 1477 1477 1477 1477 1476 1476 1476 1476 1477 1477 1477 1477 1476 1476 1476 1475 1475 1475 1474 1474 1473 1472 1471